Portada
METAR-TAF:

METAR-TAF

Aeroports :

Lifuka, Tonga

latitud: 19-46-36S, longitud: 174-20-28W, altitud: 9 m

Observació

L'informe es va fer fa 1 hora i 16 minuts, a les 18:00 UTC
Vent 13 kt del Est/Sud-Est
Temperatura 22°C
Humitat 69%
Pressió 1017 hPa
Visibilitat 10 km o més
Escasses núvols a una alçada de 1700 ft
Cel ennuvolat a una alçada de 30000 ft

METAR: NFTL 211800Z 12013KT 9999 FEW017 BKN300 22/16 Q1017

Hora: 08:16 (19:16 UTC)


TAF: manca

Observacions i pronòstics meteorològics de més de 4000 aeroports (METAR i TAF).

Les estacions disponibles són els punts grocs i vermells al mapa.

Posi el ratolí al punt desitjat per veure el nom de l'estació.

Feu clic per veure les observacions i els pronòstics meteorològics.

Per canviar el mapa: feu clic els botons verds amb una creu de color negre per apropar; al botó verd amb un guió per allunyar la imatge; o en les fletxes verdes per a mapes adjacents.


METAR-TAF: